Regional Weather Roundup
Issued by NWS Portland, ME

Home | Current Version | Previous Version | Text Only | Print | Product List | Glossary On
Versions: 1 2 3 4 5 6 7 8 9 10 11 12 13 14 15 16 17 18 19 20 21 22 23 24 25 26 27 28 29 30 31 32 33 34 35 36 37 38 39 40 41 42 43 44 45 46 47 48 49 50
000
ASUS41 KGYX 070410
RWRGYX
WEATHER ROUNDUP FOR MAINE AND NEW HAMPSHIRE
NATIONAL WEATHER SERVICE GRAY ME
1200 AM EDT THU MAY 07 2015

MEZ002-005-006-010-012-015-018-020-021-024-026-027-029-070500-
MAINE

CITY           SKY/WX    TMP DP  RH WIND       PRES   REMARKS
PORTLAND       CLEAR     54  39  57 CALM      30.15S
SANFORD        FAIR      45  36  70 CALM      30.17R
BAR HARBOR     CLOUDY    52  41  66 CALM      30.12R
WISCASSET      CLEAR     45  39  79 CALM      30.16R
ROCKLAND       CLEAR     52  37  58 CALM      30.12S
FRYEBURG       CLEAR     54  34  46 SW3       30.16S
AUGUSTA        CLEAR     57  35  43 SW5       30.13S
WATERVILLE     CLEAR     52  36  54 SW3       30.10S
BANGOR         MOCLDY    59  37  44 NW7       30.11R
GREENVILLE       N/A     54  35  48 NW7       30.09S
MILLINOCKET    PTCLDY    58  37  45 W6        30.10R
HOULTON        PTCLDY    48  34  58 CALM      30.05R
PRESQUE ISLE   PTCLDY    52  28  40 W6        30.05S
FRENCHVILLE    PTCLDY    48  26  42 NW9       30.03S
CARIBOU        PTCLDY    49  31  49 W5        30.04R
$$

NHZ002-005-008-009-011-012-014-070500-
NEW HAMPSHIRE

CITY           SKY/WX    TMP DP  RH WIND       PRES   REMARKS
PORTSMOUTH     CLEAR     60  35  39 SW8       30.16R
ROCHESTER      CLEAR     53  40  61 NW5       30.17R
NASHUA         CLEAR     57  38  49 CALM      30.19R
MANCHESTER     CLEAR     62  34  35 S3        30.17R
CONCORD        CLEAR     49  41  74 CALM      30.19R
LACONIA        CLEAR     52  39  62 CALM      30.17R
PLYMOUTH       FAIR      46  44  91 CALM      30.18R
BERLIN         CLEAR     40  34  79 CALM      30.16S
WHITEFIELD     CLEAR     42  35  76 CALM      30.18R
JAFFREY        CLEAR     56  36  47 S7        30.22R
KEENE          CLEAR     50  37  62 CALM      30.22R
LEBANON        CLEAR     48  37  65 CALM      30.19R
MT WASHINGTON  PTCLDY    37  27  65 NW51G56     N/A
$$

VTZ005-007-008-070500-
VERMONT

CITY           SKY/WX    TMP DP  RH WIND       PRES   REMARKS
ST JOHNSBURY     N/A     50  39  66 MISG      30.16R
MONTPELIER     CLEAR     51  35  54 CALM      30.23S
BURLINGTON     CLEAR     54  38  54 CALM      30.16S
$$

MAZ007-012-024-CTZ003-RIZ002-NYZ038-NYZ072-070500-
SOUTHERN NEW ENGLAND AND NY

CITY           SKY/WX    TMP DP  RH WIND       PRES   REMARKS
BOSTON         PTCLDY    58  33  39 SW12      30.21R
WORCESTER      FAIR      55  29  36 W15       30.22S
NANTUCKET      CLEAR     45  41  86 SW5       30.22S
PROVIDENCE     CLEAR     54  32  43 W3        30.23S
HARTFORD       CLEAR     55  32  41 S8        30.22S
ALBANY         CLEAR     61  39  44 S6        30.20R
NEW YORK CITY  CLEAR     60  45  57 S5        30.24S
$$

ANZ081-ANZ082-ANZ150-NHZ014-MEZ023>029-070500-
COASTAL MARINE OBSERVATIONS

STATION/POSITION TIME  TEMP    WIND        PRES    WAVE
                       AIR SEA DIR/SP/G            HT/PER
                 (UTC) (F)     (DEG/KT/KT) (MB)    (FT/S)
MOUNT DESERT ROC 0400   47     240/ 21/ 23   N/A
MATINICUS ROCK   0300   45     250/ 15/ 17   N/A
ISLE OF SHOALS   0300   63     230/ 21/ 21   N/A
JEFFREYS LEDGE   0303      47                N/A     3/ 4
CASHES LEDGE BUO 0350   51 44                N/A     3/ 4
GEORGES BANK BUO 0350   49 44  220/  6/  6   N/A     3/ 8
$$

.............KEY..............
   WCI - WIND CHILL
   TC  - TEMPERATURE IN CELSIUS
   VSB - VISIBILITY IN MILES
   HX  - HEAT INDEX
   FAIR- INDICATES FEW OR NO CLOUDS BELOW 12,000 FT, WITH NO
         SIGNIFICANT WEATHER AND/OR OBSTRUCTIONS TO VISIBILITY.





USA.gov is the U.S. government's official web portal to all federal, state and local government web resources and services.